Regional Weather Roundup
Issued by NWS

Home | Current Version | Previous Version | Graphics & Text | Print | Product List | Glossary On
Versions: 1 2 3 4 5 6 7 8 9 10 11 12 13 14 15 16 17 18 19 20 21 22 23 24 25 26 27 28 29 30 31 32 33 34 35 36 37 38 39 40 41 42 43 44 45 46 47 48 49 50
000
ASUS43 KIND 262109
RWRIN

WEATHER ROUNDUP FOR INDIANA
NATIONAL WEATHER SERVICE INDIANAPOLIS IN
500 PM EDT TUE MAY 26 2015

NOTE: "FAIR" INDICATES FEW OR NO CLOUDS BELOW 12,000 FEET WITH NO
SIGNIFICANT WEATHER AND/OR OBSTRUCTIONS TO VISIBILITY.

* - STATION DOES NOT REPORT WEATHER SUCH AS PRECIPITATION OR FOG.

+ - STATION NOT QUALITY CONTROLLED BY THE NATIONAL WEATHER SERVICE.
    USE DATA WITH CAUTION...ESPECIALLY DEWPOINT AND RELATIVE
    HUMIDITY OBSERVATIONS.

INZ001>003-010>013-019-020-262200-
NORTHWEST INDIANA

CITY           SKY/WX    TMP DP  RH WIND       PRES   REMARKS
GARY /AIRPORT/ PTSUNNY   75  64  69 S8        29.81F
KNOX *+        CLOUDY    66  66 100 S13       29.85F
LA PORTE +     PTSUNNY   75  66  71 SW18G26   29.84F
MICHIGAN CITY+ CLOUDY    73  63  68 SW18G26   29.82F
MONTICELLO +   PTSUNNY   75  70  84 SW15G21   29.86F
RENSSELAER +   MOSUNNY   75  68  78 S23       29.84F
VALPARAISO     PTSUNNY   74  64  71 SW17G25   29.83F

$$

LMZ046-743>745-262200-
SOUTHERN LAKE MICHIGAN

STATION/POSITION TIME  TEMP    WIND        PRES    WAVE
                       AIR SEA DIR/SP/G            HT
                 (UTC) (F)     (DEG/KT/KT) (MB)    (FT)
BURNS HARBOR     2100   71     210/ 17/ 26 1009.8F
MICHIGAN CITY    2100   71     180/ 22/ 26   N/A
5NW MICH CITY    2100   65 52  220/ 16/ 21   N/A     2

$$

INZ004-005-014>016-021>024-262200-
NORTH CENTRAL INDIANA

CITY           SKY/WX    TMP DP  RH WIND       PRES   REMARKS
ELKHART        RAIN      73  66  78 SW15G29   29.87S
GOSHEN         PTSUNNY   77  66  68 S28G37    29.86S
LOGANSPORT +   CLOUDY    79  55  44 SW24G33   29.88S
PERU/GRISSOM   RAIN      76  65  69 S20       29.88S
ROCHESTER +    PTSUNNY   73  63  68 W15G22    29.88R
SOUTH BEND     CLOUDY    70  65  84 SW18G28   29.85R
WARSAW +       PTSUNNY   72  68  88 S8G18     29.88S

$$

INZ006>009-017-018-025>027-262200-
NORTHEAST INDIANA

CITY           SKY/WX    TMP DP  RH WIND       PRES   REMARKS
ANGOLA *+      CLOUDY    72  68  88 S12       29.89R
AUBURN +       LGT RAIN  70  64  83 S9G21     29.90F
FORT WAYNE     LGT RAIN  71  68  90 S23G30    29.91F
HUNTINGTON +   LGT RAIN  70  67  92 S10G18    29.90F

$$

INZ028-029-035-036-043>045-051>053-262200-
WEST CENTRAL INDIANA

CITY           SKY/WX    TMP DP  RH WIND       PRES   REMARKS
CRAWFORDSVL +  MOSUNNY   79  54  41 SW25G35   29.89S
GREENCASTLE +  PTSUNNY   77  55  47 S8G17     29.91S
LAFAYETTE      PTSUNNY   74  68  81 SW7       29.86S
TERRE HAUTE    MOSUNNY   81  60  48 SW22G32   29.90S

$$

INZ030>032-037>040-046>048-054>057-064-065-262200-
CENTRAL INDIANA

CITY           SKY/WX    TMP DP  RH WIND       PRES   REMARKS
CP ATTERBURY + CLOUDY    73  66  78 S8G17     29.96S
COLUMBUS       PTSUNNY   72  66  83 S15       29.97S
FISHERS *+     CLOUDY    73  72  94 S10       29.92
FRANKFORT +    CLOUDY    82  60  48 S22G35    29.90F
GREENWOOD *+   CLOUDY    75  68  78 S14       29.95F
INDIANAPOLIS   CLOUDY    76  66  71 S17       29.90F
-EAGLE CREEK   CLOUDY    75  65  70 S8        29.91F
KOKOMO *+      CLOUDY    75  64  69 S17G29    29.89F
MARION +       CLOUDY    70  67  89 S16       29.93F
MT COMFORT *+  CLOUDY    73 N/A N/A S16G23    29.93F
SHELBYVILLE    CLOUDY    75  67  76 S22       29.95F
ZIONSVILLE +   LGT RAIN  72  65  78 SW10      29.93R

$$

INZ033-034-041-042-049-050-058-059-262200-
EAST CENTRAL INDIANA

CITY           SKY/WX    TMP DP  RH WIND       PRES   REMARKS
MUNCIE         LGT RAIN  71  67  87 S9        29.94F

$$

INZ060-061-067>069-081>083-085>088-262200-
SOUTHWEST INDIANA

CITY           SKY/WX    TMP DP  RH WIND       PRES   REMARKS
EVANSVILLE     MOSUNNY   80  63  55 SW16G28   29.96F
HUNTINGBURG *+ PTSUNNY   79  64  61 SW17      29.97S
WASHINGTON +   PTSUNNY   78  58  50 SW14G25   29.93F

$$

INZ062-063-066-070>080-084-089>092-262200-
SOUTH CENTRAL AND SOUTHEAST INDIANA

CITY           SKY/WX    TMP DP  RH WIND       PRES   REMARKS
BLOOMINGTON    PTSUNNY   78  62  57 SW14G25   29.94S
MADISON *+     CLOUDY    73  68  83 S13       30.02S
NORTH VERNON + CLOUDY    72  72 100 S6        30.00S
SEYMOUR +      CLOUDY    77  66  69 SW17G23   29.98S

$$




USA.gov is the U.S. government's official web portal to all federal, state and local government web resources and services.